#timestamp,LO_Frequency,Hit,StdDev 
1609592415.9,286047000.2,N
1609592435.7,286047001.1,N
1609592455.6,286046998.7,N
1609592475.4,286046996.5,N
1609592495.3,286046999.2,N
1609592515.1,286046999.4,N
1609592535.8,286046999.6,N
1609592555.7,286046996.6,N
1609592575.5,286046996.5,N
1609592595.4,286046995.0,N
1609592615.2,286046993.5,N
1609592635.0,286046994.7,N
1609592635.9,286046994.7,N
1609592655.8,286046994.3,N
1609592675.6,286046994.8,N
1609592695.4,286046996.1,N
1609592715.3,286046998.0,N
1609592735.1,286046998.0,N
1609592755.9,286046995.3,N
1609592775.7,286046997.6,N
1609592795.5,286046995.1,N
1609592815.4,286046994.2,N
1609592835.2,286046993.6,N
1609592855.0,286046996.3,N
1609592855.9,286046996.3,N
1609592875.8,286046996.2,N
1609592895.6,286046996.2,N
1609592915.5,286046996.0,N
1609592935.3,286046995.7,N
1609592955.1,286046995.8,N
1609592975.9,286046996.4,N
1609592995.7,286046996.3,N
1609593015.5,286046993.3,Y
1609593035.4,286047001.1,P
1609593055.2,286046998.1,N
1609593075.1,286046998.7,N
1609593076.0,286046998.7,N
1609593095.8,286047001.1,N
1609593115.6,286046998.6,N
1609593135.5,286046996.5,N
1609593155.3,286046997.0,N
1609593175.2,286046996.7,N
1609593195.1,286047011.9,Y
1609593196.0,286046996.8,P
1609593215.8,286046999.4,N
1609593235.6,286046999.2,N
1609593255.5,286046998.2,N
1609593275.3,286046998.6,N
1609593295.2,286047000.8,N
1609593315.0,286046998.9,N
1609593315.9,286046998.9,N
1609593335.8,286046999.2,N
1609593355.6,286046997.0,Y
1609593375.4,286046999.4,P
1609593395.3,286046996.5,P
1609593415.1,286046996.9,N
1609593435.8,286046996.9,N
1609593455.7,286046994.9,Y
1609593475.5,286046997.1,P
1609593495.4,286046997.1,P
1609593515.2,286046997.1,P
1609593535.1,286046996.7,Y
1609593536.0,286046996.7,P
1609593555.8,286047002.6,P
1609593575.6,286047001.4,N
1609593595.5,286047002.7,N
1609593615.3,286047001.9,N
1609593635.2,286047002.9,N
1609593655.0,286047004.1,N
1609593655.9,286047004.1,N
1609593675.8,286047004.1,N
1609593695.6,286047003.6,N
1609593715.4,286047003.3,N
1609593735.3,286047003.5,N
1609593755.1,286047005.5,N
1609593775.9,286047003.8,N
1609593795.7,286047003.4,N
1609593815.5,286047003.2,N
1609593835.4,286047005.2,N
1609593855.2,286047004.8,N
1609593875.0,286047003.3,N
1609593875.9,286047003.3,N
1609593895.8,286047005.3,N
1609593915.6,286047004.5,N
1609593965.5,286047007.0,E
1609593975.4,286047003.8,N
1609593995.2,286046999.0,P
1609594015.1,286046996.5,N
1609594016.0,286046996.5,N
1609594035.8,286046998.7,N
1609594055.7,286047001.2,N
1609594075.5,286046998.1,N
1609594095.3,286047000.4,N
1609594115.2,286047000.2,N
1609594135.0,286046998.1,N
1609594135.9,286046998.1,N
1609594155.8,286047001.1,N
1609594175.6,286046998.5,N
1609594195.4,286046999.1,N
1609594215.3,286047001.2,N
1609594235.1,286046998.1,N
1609594255.8,286046999.5,N
1609594275.7,286046999.2,N
1609594295.5,286046997.1,N
1609594315.4,286046998.7,N
1609594335.2,286047000.8,N
1609594355.0,286046998.7,N
1609594355.9,286046998.7,N
1609594375.8,286047000.5,N
1609594395.6,286046999.4,N
1609594415.5,286046999.2,N
1609594435.3,286046998.8,N
1609594455.1,286046999.0,N
1609594475.9,286047000.5,N
1609594495.7,286046999.7,N
1609594515.5,286047000.5,N
1609594535.4,286047000.2,N
1609594555.2,286047001.0,N
1609594575.1,286046999.9,N
1609594576.0,286046999.9,N
1609594595.8,286047000.5,N
1609594615.6,286047002.3,N
1609594635.5,286047001.6,N
1609594655.3,286047004.2,Y
1609594675.1,286047005.9,P
1609594695.9,286047003.6,N
1609594715.7,286047001.6,N
1609594735.6,286047003.9,N
1609594755.4,286047002.0,N
1609594775.2,286047004.4,N
1609594795.1,286047003.8,N
1609594796.0,286047003.8,N
1609594815.8,286047003.7,N
1609594835.7,286047004.1,N
1609594855.5,286047004.4,N
1609594875.3,286047004.4,N
1609594895.2,286047004.4,N
1609594915.9,286047004.0,N
1609594935.7,286047003.5,N
1609594955.6,286047001.8,N
1609594975.4,286047002.0,N
1609594995.2,286047001.8,N
1609595015.1,286047002.2,N
1609595016.0,286047002.2,N
1609595035.8,286047001.9,N
1609595055.7,286047002.5,N
1609595075.5,286047002.1,N
1609595095.3,286047001.6,N
1609595115.2,286047002.5,N
1609595135.0,286047002.6,N
1609595135.9,286047002.6,N
1609595155.8,286047002.5,N
1609595175.6,286047004.0,Y
1609595195.4,286046998.1,P
1609595215.3,286047000.8,N
1609595235.1,286047001.2,N
1609595255.8,286046999.0,N
1609595275.7,286046998.2,N
1609595295.5,286047000.8,N
1609595315.4,286046998.1,N
1609595335.2,286047001.2,N
1609595355.0,286047000.8,N
1609595355.9,286047000.8,N
1609595375.8,286047000.1,N
1609595395.6,286046998.1,N
1609595415.5,286047000.3,N
1609595435.3,286046999.2,N
1609595455.1,286046998.8,N
1609595475.9,286046998.8,N
1609595495.7,286046997.0,N
1609595515.5,286046997.0,N
1609595535.4,286046999.6,N
1609595555.2,286046999.5,N
1609595575.1,286046999.4,N
1609595576.0,286046999.4,N
1609595595.8,286046998.8,N
1609595615.6,286046998.9,N
1609595635.5,286046998.4,N
1609595655.3,286046999.4,N
1609595675.1,286046998.3,N
1609595695.9,286046999.2,N
1609595715.7,286046999.6,N
1609595735.6,286046997.7,N
1609595755.4,286046998.9,N
1609595775.2,286046998.9,N
1609595795.1,286046996.6,Y
1609595796.0,286046996.6,P
1609595815.8,286046998.8,N
1609595835.7,286046999.4,N
1609595855.5,286047000.9,N
1609595875.3,286046998.1,N
1609595895.2,286046997.7,N
1609595915.9,286046999.6,N
1609595935.7,286046999.5,N
1609595955.6,286046998.8,N
1609595975.4,286046998.6,N
1609595995.2,286047001.2,N
